(°C)
16°
15°
15°
15°
16°
17°
19°
(°C)
15°
14°
13°
13°
14°
15°
17°
ССВ
ССВ
ССВ
ССВ
СВ
СВ
СВ
(км/ч)
10-17
9-17
9-17
9-18
10-19
11-20
12-22
(мм)
0
0
0
0
0
0
0
(%)
0
0
0
0
0
0
0

Высота солнцестояния

/ -9.5°
sun-icon
UV 7
04:29
21:23
Прибывающая луна (82°)
11:36
01:17

METAR для 52.53°С 31.02°В (UMGG)

Время Условия Температура/
Точка росы
Ветер Видимость Погода Облачность Давление Изменить Необработанный
VFR 16°C / 12°C 20º 4kt >10km - Clouds and Visibility OK 1019 No Significant change UMGG 162300Z 02002MPS CAVOK 16/12 Q1019 R10/CLRD// NOSIG
VFR 16°C / 12°C 20º 6kt >10km - Clouds and Visibility OK 1019 No Significant change UMGG 162200Z 02003MPS CAVOK 16/12 Q1019 R10/CLRD// NOSIG
VFR 17°C / 12°C 10º 8kt >10km - Clouds and Visibility OK 1019 No Significant change UMGG 162100Z 01004MPS CAVOK 17/12 Q1019 R10/CLRD// NOSIG
VFR 18°C / 12°C 350º 6kt >10km - Clouds and Visibility OK 1018 No Significant change UMGG 162000Z 35003MPS CAVOK 18/12 Q1018 R10/D NOSIG
VFR 19°C / 13°C 20º 4kt >10km - Clouds and Visibility OK 1018 No Significant change UMGG 161900Z 02002MPS CAVOK 19/13 Q1018 R10/D NOSIG
VFR 21°C / 14°C 30º 6kt >10km - Clouds and Visibility OK 1017 No Significant change UMGG 161800Z 03003MPS CAVOK 21/14 Q1017 R10/CLRD// NOSIG
VFR 24°C / 12°C 40º 10kt >10km - Clouds and Visibility OK 1017 No Significant change UMGG 161700Z 04005MPS CAVOK 24/12 Q1017 R10/CLRD// NOSIG
VFR 25°C / 11°C 40º 10kt >10km - Clouds and Visibility OK 1017 No Significant change UMGG 161630Z 04005MPS CAVOK 25/11 Q1017 R10/CLRD// NOSIG
VFR 25°C / 11°C 40º 10kt >10km - Clouds and Visibility OK 1016 No Significant change UMGG 161600Z 04005MPS CAVOK 25/11 Q1016 R10/CLRD// NOSIG
VFR 26°C / 10°C 360º 14kt >10km - Clouds and Visibility OK 1016 No Significant change UMGG 161530Z 36007MPS CAVOK 26/10 Q1016 R10/D NOSIG
VFR 26°C / 10°C 350º 10kt Gust 16kt >10km - Clouds and Visibility OK 1016 No Significant change UMGG 161500Z 35005G08MPS CAVOK 26/10 Q1016 R10/D NOSIG
VFR 26°C / 9°C 350º 10kt Gust 16kt >10km - Clouds and Visibility OK 1016 No Significant change UMGG 161430Z 35005G08MPS CAVOK 26/09 Q1016 R10/CLRD// NOSIG
VFR 26°C / 9°C 350º 10kt Gust 16kt >10km - Clouds and Visibility OK 1016 No Significant change UMGG 161400Z 35005G08MPS CAVOK 26/09 Q1016 R10/CLRD// NOSIG
VFR 27°C / 10°C 350º 12kt Gust 17kt >10km - Clouds and Visibility OK 1016 No Significant change UMGG 161330Z 35006G09MPS CAVOK 27/10 Q1016 R10/CLRD// NOSIG
VFR 27°C / 10°C 350º 12kt Gust 17kt >10km - Clouds and Visibility OK 1016 No Significant change UMGG 161300Z 35006G09MPS CAVOK 27/10 Q1016 R10/CLRD// NOSIG
VFR 27°C / 11°C 350º 10kt Gust 16kt >10km - Clouds and Visibility OK 1016 No Significant change UMGG 161230Z 35005G08MPS CAVOK 27/11 Q1016 R10/CLRD// NOSIG
VFR 27°C / 11°C 350º 10kt Gust 16kt >10km - Scattered Clouds 4900ft 1016 No Significant change UMGG 161200Z 35005G08MPS 9999 SCT049 BKN100 27/11 Q1016 R10/CLRD// NOSIG
VFR 26°C / 13°C 350º 12kt Gust 17kt >10km - Broken Clouds 4600ft 1016 No Significant change UMGG 161130Z 35006G09MPS 9999 BKN046 26/13 Q1016 R10/CLRD// NOSIG
VFR 26°C / 13°C 360º 10kt Gust 16kt >10km - Broken Clouds 4500ft 1016 No Significant change UMGG 161100Z 36005G08MPS 9999 BKN045 26/13 Q1016 R28/CLRD// NOSIG
VFR 25°C / 12°C 340º 10kt Gust 16kt >10km - Broken Clouds 4500ft 1016 No Significant change UMGG 161030Z 34005G08MPS 9999 BKN045 25/12 Q1016 R28/CLRD// NOSIG
VFR 25°C / 12°C 10º 14kt >10km - Broken Clouds 4600ft 1016 No Significant change UMGG 161000Z 01007MPS 9999 BKN046 25/12 Q1016 R28/D NOSIG
VFR 24°C / 13°C 10º 14kt >10km - Broken Clouds 4600ft 1016 No Significant change UMGG 160930Z 01007MPS 9999 BKN046 BKN100 24/13 Q1016 R28/CLRD// NOSIG
VFR 24°C / 13°C 360º 12kt >10km - Broken Clouds 3900ft 1016 No Significant change UMGG 160900Z 36006MPS 9999 BKN039 BKN100 24/13 Q1016 R28/CLRD// NOSIG
VFR 23°C / 14°C 20º 12kt >10km - Scattered Clouds 3900ft 1016 No Significant change UMGG 160830Z 02006MPS 9999 SCT039 BKN100 23/14 Q1016 R28/D NOSIG

VFR

16°C / 12°C

[Больше]
Ветер 20º 4kt
Видимость >10km
Погода -
Облачность Clouds and Visibility OK
Давление 1019
Изменить No Significant change
Необработанный UMGG 162300Z 02002MPS CAVOK 16/12 Q1019 R10/CLRD// NOSIG

VFR

16°C / 12°C

[Больше]
Ветер 20º 6kt
Видимость >10km
Погода -
Облачность Clouds and Visibility OK
Давление 1019
Изменить No Significant change
Необработанный UMGG 162200Z 02003MPS CAVOK 16/12 Q1019 R10/CLRD// NOSIG

VFR

17°C / 12°C

[Больше]
Ветер 10º 8kt
Видимость >10km
Погода -
Облачность Clouds and Visibility OK
Давление 1019
Изменить No Significant change
Необработанный UMGG 162100Z 01004MPS CAVOK 17/12 Q1019 R10/CLRD// NOSIG

VFR

18°C / 12°C

[Больше]
Ветер 350º 6kt
Видимость >10km
Погода -
Облачность Clouds and Visibility OK
Давление 1018
Изменить No Significant change
Необработанный UMGG 162000Z 35003MPS CAVOK 18/12 Q1018 R10/D NOSIG

VFR

19°C / 13°C

[Больше]
Ветер 20º 4kt
Видимость >10km
Погода -
Облачность Clouds and Visibility OK
Давление 1018
Изменить No Significant change
Необработанный UMGG 161900Z 02002MPS CAVOK 19/13 Q1018 R10/D NOSIG

VFR

21°C / 14°C

[Больше]
Ветер 30º 6kt
Видимость >10km
Погода -
Облачность Clouds and Visibility OK
Давление 1017
Изменить No Significant change
Необработанный UMGG 161800Z 03003MPS CAVOK 21/14 Q1017 R10/CLRD// NOSIG

VFR

24°C / 12°C

[Больше]
Ветер 40º 10kt
Видимость >10km
Погода -
Облачность Clouds and Visibility OK
Давление 1017
Изменить No Significant change
Необработанный UMGG 161700Z 04005MPS CAVOK 24/12 Q1017 R10/CLRD// NOSIG

VFR

25°C / 11°C

[Больше]
Ветер 40º 10kt
Видимость >10km
Погода -
Облачность Clouds and Visibility OK
Давление 1017
Изменить No Significant change
Необработанный UMGG 161630Z 04005MPS CAVOK 25/11 Q1017 R10/CLRD// NOSIG

VFR

25°C / 11°C

[Больше]
Ветер 40º 10kt
Видимость >10km
Погода -
Облачность Clouds and Visibility OK
Давление 1016
Изменить No Significant change
Необработанный UMGG 161600Z 04005MPS CAVOK 25/11 Q1016 R10/CLRD// NOSIG

VFR

26°C / 10°C

[Больше]
Ветер 360º 14kt
Видимость >10km
Погода -
Облачность Clouds and Visibility OK
Давление 1016
Изменить No Significant change
Необработанный UMGG 161530Z 36007MPS CAVOK 26/10 Q1016 R10/D NOSIG

VFR

26°C / 10°C

[Больше]
Ветер 350º 10kt Gust 16kt
Видимость >10km
Погода -
Облачность Clouds and Visibility OK
Давление 1016
Изменить No Significant change
Необработанный UMGG 161500Z 35005G08MPS CAVOK 26/10 Q1016 R10/D NOSIG

VFR

26°C / 9°C

[Больше]
Ветер 350º 10kt Gust 16kt
Видимость >10km
Погода -
Облачность Clouds and Visibility OK
Давление 1016
Изменить No Significant change
Необработанный UMGG 161430Z 35005G08MPS CAVOK 26/09 Q1016 R10/CLRD// NOSIG

VFR

26°C / 9°C

[Больше]
Ветер 350º 10kt Gust 16kt
Видимость >10km
Погода -
Облачность Clouds and Visibility OK
Давление 1016
Изменить No Significant change
Необработанный UMGG 161400Z 35005G08MPS CAVOK 26/09 Q1016 R10/CLRD// NOSIG

VFR

27°C / 10°C

[Больше]
Ветер 350º 12kt Gust 17kt
Видимость >10km
Погода -
Облачность Clouds and Visibility OK
Давление 1016
Изменить No Significant change
Необработанный UMGG 161330Z 35006G09MPS CAVOK 27/10 Q1016 R10/CLRD// NOSIG

VFR

27°C / 10°C

[Больше]
Ветер 350º 12kt Gust 17kt
Видимость >10km
Погода -
Облачность Clouds and Visibility OK
Давление 1016
Изменить No Significant change
Необработанный UMGG 161300Z 35006G09MPS CAVOK 27/10 Q1016 R10/CLRD// NOSIG

VFR

27°C / 11°C

[Больше]
Ветер 350º 10kt Gust 16kt
Видимость >10km
Погода -
Облачность Clouds and Visibility OK
Давление 1016
Изменить No Significant change
Необработанный UMGG 161230Z 35005G08MPS CAVOK 27/11 Q1016 R10/CLRD// NOSIG

VFR

27°C / 11°C

[Больше]
Ветер 350º 10kt Gust 16kt
Видимость >10km
Погода -
Облачность Scattered Clouds 4900ft
Давление 1016
Изменить No Significant change
Необработанный UMGG 161200Z 35005G08MPS 9999 SCT049 BKN100 27/11 Q1016 R10/CLRD// NOSIG

VFR

26°C / 13°C

[Больше]
Ветер 350º 12kt Gust 17kt
Видимость >10km
Погода -
Облачность Broken Clouds 4600ft
Давление 1016
Изменить No Significant change
Необработанный UMGG 161130Z 35006G09MPS 9999 BKN046 26/13 Q1016 R10/CLRD// NOSIG

VFR

26°C / 13°C

[Больше]
Ветер 360º 10kt Gust 16kt
Видимость >10km
Погода -
Облачность Broken Clouds 4500ft
Давление 1016
Изменить No Significant change
Необработанный UMGG 161100Z 36005G08MPS 9999 BKN045 26/13 Q1016 R28/CLRD// NOSIG

VFR

25°C / 12°C

[Больше]
Ветер 340º 10kt Gust 16kt
Видимость >10km
Погода -
Облачность Broken Clouds 4500ft
Давление 1016
Изменить No Significant change
Необработанный UMGG 161030Z 34005G08MPS 9999 BKN045 25/12 Q1016 R28/CLRD// NOSIG

VFR

25°C / 12°C

[Больше]
Ветер 10º 14kt
Видимость >10km
Погода -
Облачность Broken Clouds 4600ft
Давление 1016
Изменить No Significant change
Необработанный UMGG 161000Z 01007MPS 9999 BKN046 25/12 Q1016 R28/D NOSIG

VFR

24°C / 13°C

[Больше]
Ветер 10º 14kt
Видимость >10km
Погода -
Облачность Broken Clouds 4600ft
Давление 1016
Изменить No Significant change
Необработанный UMGG 160930Z 01007MPS 9999 BKN046 BKN100 24/13 Q1016 R28/CLRD// NOSIG

VFR

24°C / 13°C

[Больше]
Ветер 360º 12kt
Видимость >10km
Погода -
Облачность Broken Clouds 3900ft
Давление 1016
Изменить No Significant change
Необработанный UMGG 160900Z 36006MPS 9999 BKN039 BKN100 24/13 Q1016 R28/CLRD// NOSIG

VFR

23°C / 14°C

[Больше]
Ветер 20º 12kt
Видимость >10km
Погода -
Облачность Scattered Clouds 3900ft
Давление 1016
Изменить No Significant change
Необработанный UMGG 160830Z 02006MPS 9999 SCT039 BKN100 23/14 Q1016 R28/D NOSIG

TAF для 52.53°С 31.02°В (UMGG)

From till


Maximum Temperature 27ºC on . Minimum Temperature 17ºC on .
From till Wind 30º 10kt. Visibility 10km or more. Nil Significant Cloud.
Temporarly from till Wind 60º 14kt.

Необработанный: TAF UMGG 162300Z 1700/1724 03005MPS CAVOK TX27/1712Z TN17/1702Z TEMPO 1706/1724 06007MPS

rainNOW

0.0 мм
0.0 мм
0.0 мм
0.0 мм
0.0 мм
0.0 мм
0.0 мм
0.0 мм
0.0 мм
0.0 мм
0.0 мм
0.0 мм

Текущие спутниковые изображения и снимки дождя для 52.53°С 31.02°В

Указатель местности находится на 52.53°С 31.02°В. [Больше]

Спутниковое изображение в реальном времени сочетает в себе видимый свет в дневное время с инфракрасным излучением в ночное время. Ночью изображение получается не темным, так как инфракрасное излучение может обнаружить разницу температур. К сожалению, низкие облака и туман трудно отличить от температуры у поверхности земли и поэтому могут быть почти незаметны ночью. Спутниковые снимки Meteosat для Европы обновляются каждые 5 минут в режиме реального времени.Снимки GOES-16/GOES-17 (Северная и Южная Америка) и Химавари (Азия) обновляются каждые 10 минут.

Копирайт 2021 EUMETSAT / meteoblue. / Копирайт 2021 meteoblue

Радарный и сверхкраткосрочный прогноз осадков для 52.53°С 31.02°В

Индикатор местности находится на 52.53°С 31.02°В. Анимация показывает радар осадков за последний час, а также прогноз погоды для1h. Умеренная морось или легкий снег могут быть незаметны для радара. Интенсивность осадковмаркированна цветной кодировкой, начиная со светло-синего и заканчивая темно-пурпурным.